User: anonymous   Login
Location: Lussas
(44.6119°N, 4.4726°E)
Time: 16:49:26
(UTC+00:00)
Language:

BREEZE-M DEB (TANK) - Orbit

View from above orbital plane
View from above orbital plane
View from above satellite
View from above satellite

Ground track
Ground track

The orbit data is extracted from the following two-line orbital elements,

1 28870U 05036C   21059.41835362  .00000329  00000-0  14867-3 0  9991
2 28870  49.4372  41.8151 5433606  81.5313 333.7721  4.85049981304522
Epoch (UTC): 28 February 2021 10:02:25
Eccentricity: 0.5433606
inclination: 49.4372°
perigee height: 353 km
apogee height: 16373 km
right ascension of ascending node: 41.8151°
argument of perigee: 81.5313°
revolutions per day: 4.85049981
mean anomaly at epoch: 333.7721°
orbit number at epoch: 30452

The dashed part of the orbit path shows where the satellite is in the earth's shadow,  

DLR